Orbital Elements at Epoch 2459200.5 (2020-Dec-17.0) TDB
Reference: JPL 23 (heliocentric ecliptic J2000)
Element | Value | Uncertainty (1-sigma) | Units |
e | .1371381157166822 | 4.3007e-08 | |
a | 2.305461530208214 | 8.6244e-09 | au |
q | 1.98929488009816 | 1.0006e-07 | au |
i | 6.264007381543921 | 6.7276e-06 | deg |
node | 347.5348356988964 | 3.0824e-05 | deg |
peri | 43.33585865702646 | 3.9102e-05 | deg |
M | 89.17670350506611 | 2.2982e-05 | deg |
tp | 2458883.773676164328 (2020-Feb-04.27367616) | 8.1556e-05 | TDB |
period | 1278.601608932139 3.50 | 7.1746e-06 1.964e-08 | d yr |
n | .2815575997129117 | 1.5799e-09 | deg/d |
Q | 2.621628180318267 | 9.8072e-09 | au |
|
| | Orbit Determination Parameters
Additional Information
|